User: anonymous   Login
Location: Theydon Bois
(51.6750°N, 0.1050°E)
Time: 04:23:24
(UTC+00:00)
Language:

SL-24 R/B - RUBIN 2 - Orbit

View from above orbital plane
View from above orbital plane
View from above satellite
View from above satellite

Ground track
Ground track

The orbit data is extracted from the following two-line orbital elements,

1 27610U 02058F   17350.42701310 -.00000095 +00000-0 +87726-5 0  9995
2 27610 064.5592 344.1670 0287036 163.4025 347.2954 14.28120959781406
Epoch (UTC): 16 December 2017 10:14:53
Eccentricity: 0.0287036
inclination: 64.5592°
perigee height: 592 km
apogee height: 1004 km
right ascension of ascending node: 344.1670°
argument of perigee: 163.4025°
revolutions per day: 14.28120959
mean anomaly at epoch: 347.2954°
orbit number at epoch: 78140

The dashed part of the orbit path shows where the satellite is in the earth's shadow,  

DLR